DW8293 Weather Reports


Display with metric or nautical units.
time (UTC)temp
F
wind
direction
speed
MPH
gust
MPH
rain 1hr
in
rain 24hr
in
rain mn
in
humidity
%
barometer
mb
20260906120003 66 282 6.0 11.0 0.00 0.02 0.01 48 1010.4
20260906115405 67 293 7.0 9.0 0.00 0.02 0.01 48 1010.4
20260906114504 66 291 5.0 11.0 0.00 0.02 0.01 49 1010.5
20260906113624 67 295 4.0 13.0 0.00 0.02 0.01 51 1010.5
20260906112703 65 301 8.0 11.0 0.00 0.02 0.01 51 1010.5
20260906111803 65 290 6.0 11.0 0.00 0.02 0.01 54 1010.5
20260906110905 65 259 4.0 15.0 0.00 0.02 0.01 55 1010.4
20260906110003 65 284 4.0 8.0 0.00 0.02 0.01 57 1010.2
20260906105425 65 290 5.0 9.0 0.00 0.02 0.01 58 1010.0
20260906104505 64 303 7.0 9.0 0.00 0.02 0.01 57 1010.3
20260906103604 64 293 5.0 11.0 0.00 0.02 0.01 60 1010.4
20260906102726 64 310 4.0 8.0 0.00 0.02 0.01 60 1010.3
20260906101804 65 337 1.0 8.0 0.00 0.02 0.01 60 1010.1
20260906100903 65 325 2.0 8.0 0.00 0.02 0.01 59 1010.1
20260906100003 65 349 4.0 8.0 0.00 0.02 0.01 59 1010.0
20260906095403 64 328 4.0 8.0 0.00 0.02 0.01 58 1010.0
20260906094524 64 331 6.0 9.0 0.00 0.02 0.01 62 1010.0
20260906093603 63 326 3.0 8.0 0.00 0.02 0.01 65 1009.8
20260906092703 63 352 4.0 8.0 0.00 0.02 0.01 65 1009.8
20260906091804 62 343 2.0 7.0 0.00 0.02 0.01 67 1010.0
20260906090903 62 338 2.0 8.0 0.00 0.02 0.01 68 1009.9
20260906090003 61 326 2.0 8.0 0.00 0.02 0.01 70 1009.8
20260906085403 61 327 2.0 8.0 0.00 0.02 0.01 71 1009.9
20260906084506 61 337 4.0 6.0 0.00 0.02 0.01 71 1010.0
20260906083603 60 329 4.0 7.0 0.00 0.02 0.01 72 1009.7
20260906082703 60 332 4.0 7.0 0.00 0.02 0.01 73 1009.7
20260906081803 59 331 4.0 7.0 0.00 0.02 0.01 75 1009.7
20260906080904 58 345 4.0 7.0 0.00 0.02 0.01 76 1009.4
20260906080024 58 328 4.0 7.0 0.00 0.02 0.01 78 1009.3
20260906075403 57 327 3.0 7.0 0.00 0.02 0.01 79 1009.3
20260906074525 56 325 3.0 8.0 0.00 0.02 0.01 80 1009.4
20260906073603 55 326 5.0 7.0 0.00 0.02 0.01 82 1009.2
20260906072703 55 337 2.0 6.0 0.00 0.02 0.01 86 1009.1
20260906071825 54 5 2.0 6.0 0.00 0.02 0.01 88 1008.9
20260906070924 54 358 2.0 4.0 0.00 0.02 0.01 89 1008.9
20260906070005 53 22 2.0 4.0 0.00 0.02 0.01 91 1008.8
20260906065403 52 22 0.0 2.0 0.00 0.02 0.01 92 1008.8
20260906064505 52 22 0.0 2.0 0.00 0.02 0.01 93 1008.7
20260906063603 52 22 0.0 2.0 0.00 0.02 0.01 95 1008.6
20260906062703 50 22 0.0 2.0 0.00 0.02 0.01 99 1008.6
20260906061803 49 22 0.0 2.0 0.00 0.02 0.01 99 1008.4
20260906060904 48 21 1.0 2.0 0.00 0.02 0.01 99 1008.4
20260906060003 48 1 1.0 2.0 0.00 0.02 0.01 99 1008.5
20260906055403 47 360 0.0 2.0 0.00 0.02 0.01 99 1008.1
20260906054503 47 360 0.0 2.0 0.00 0.02 0.01 99 1008.3
20260906053603 47 0 0.0 0.0 0.00 0.02 0.01 99 1008.2
20260906052703 48 0 0.0 0.0 0.00 0.02 0.01 99 1007.9
20260906051804 46 0 0.0 0.0 0.00 0.02 0.01 99 1007.8
20260906050904 44 0 0.0 0.0 0.00 0.02 0.01 99 1007.7
20260906050003 43 0 0.0 0.0 0.00 0.02 0.01 99 1007.7
20260906045406 43 0 0.0 0.0 0.00 0.02 0.01 99 1007.7
20260906044504 43 360 0.0 2.0 0.00 0.02 0.01 99 1007.5
20260906043624 43 360 0.0 2.0 0.00 0.02 0.01 99 1007.4
20260906042704 41 360 0.0 2.0 0.00 0.02 0.01 99 1007.2
20260906041804 41 360 2.0 2.0 0.00 0.02 0.01 99 1007.0
20260906040903 40 0 0.0 0.0 0.00 0.02 0.01 99 1007.0
20260906040003 41 0 0.0 0.0 0.00 0.02 0.01 99 1006.8
20260906035424 40 0 0.0 0.0 0.00 0.02 0.01 99 1006.8
20260906034503 41 0 0.0 0.0 0.00 0.02 0.01 99 1006.8
20260906033603 40 0 0.0 0.0 0.00 0.02 0.01 99 1006.7
20260906032703 41 0 0.0 0.0 0.00 0.02 0.01 99 1006.6
20260906031803 41 0 0.0 0.0 0.00 0.02 0.01 99 1006.6
20260906030903 41 0 0.0 0.0 0.01 0.02 0.01 99 1006.6
20260906030005 41 0 0.0 0.0 0.01 0.02 0.01 99 1006.3
20260906025403 41 0 0.0 0.0 0.01 0.02 0.01 99 1006.1
20260906024504 42 0 0.0 0.0 0.01 0.02 0.01 99 1006.1
20260906023603 41 0 0.0 0.0 0.01 0.02 0.01 99 1006.2
20260906022703 42 0 0.0 0.0 0.01 0.02 0.01 99 1005.9
20260906021805 42 0 0.0 0.0 0.01 0.02 0.01 99 1005.8
20260906020903 42 0 0.0 0.0 0.00 0.01 0.00 99 1005.7
20260906020005 42 0 0.0 0.0 0.00 0.01 0.00 99 1005.8
20260906015405 42 0 0.0 0.0 0.00 0.01 0.00 99 1005.5
20260906014526 42 0 0.0 0.0 0.00 0.01 0.00 99 1005.6
20260906013604 43 0 0.0 0.0 0.00 0.01 0.00 99 1005.4
20260906012703 42 0 0.0 0.0 0.00 0.01 0.00 99 1005.3
20260906011805 43 360 0.0 2.0 0.00 0.01 0.00 99 1005.5
20260906010905 43 360 0.0 2.0 0.00 0.01 0.00 99 1005.1
20260906010005 45 360 2.0 2.0 0.00 0.01 0.00 99 1005.2
20260906005405 44 0 0.0 0.0 0.00 0.01 0.00 99 1005.3
20260906004503 45 360 0.0 2.0 0.00 0.01 0.00 99 1005.0
20260906003603 45 360 0.0 2.0 0.00 0.01 0.00 99 1004.9
20260906002703 45 0 0.0 0.0 0.00 0.01 0.00 99 1005.0
20260906001805 45 0 0.0 0.0 0.00 0.01 0.00 99 1004.8
20260906000903 45 0 0.0 0.0 0.00 0.01 0.00 99 1004.4
20260906000003 45 0 0.0 0.0 0.00 0.01 0.00 99 1004.6
20260905235403 45 0 0.0 0.0 0.00 0.01 0.00 99 1004.5
20260905234526 45 0 0.0 0.0 0.00 0.01 0.00 99 1004.4
20260905233605 46 0 0.0 0.0 0.00 0.01 0.00 99 1004.3
20260905232703 46 0 0.0 0.0 0.00 0.01 0.00 99 1004.3
20260905231803 45 0 0.0 0.0 0.00 0.01 0.00 99 1004.1
20260905230904 46 0 0.0 0.0 0.00 0.01 0.00 99 1004.1
20260905230003 47 360 0.0 2.0 0.00 0.01 0.00 99 1004.1
20260905225403 47 360 0.0 2.0 0.00 0.01 0.00 99 1004.1
20260905224503 47 360 0.0 2.0 0.00 0.01 0.00 99 1004.1
20260905223605 48 0 0.0 0.0 0.00 0.01 0.00 99 1003.9
20260905222703 48 360 0.0 2.0 0.00 0.01 0.00 99 1003.8
20260905221803 47 0 0.0 0.0 0.00 0.01 0.00 99 1003.6
20260905220903 46 0 0.0 0.0 0.00 0.01 0.00 99 1003.5
20260905220024 47 360 0.0 2.0 0.00 0.01 0.00 99 1003.4
20260905215405 47 360 0.0 2.0 0.00 0.01 0.01 99 1003.3
20260905214503 48 292 0.0 2.0 0.00 0.01 0.01 99 1003.1
20260905213605 49 301 1.0 2.0 0.00 0.02 0.01 99 1003.2
20260905212703 48 298 0.0 2.0 0.00 0.02 0.01 99 1003.0
20260905211826 49 292 1.0 2.0 0.00 0.02 0.01 99 1002.9
20260905210905 50 0 0.0 0.0 0.00 0.02 0.01 99 1002.7
20260905210027 49 0 0.0 0.0 0.00 0.02 0.01 99 1002.7
20260905205405 49 0 0.0 0.0 0.00 0.02 0.01 99 1002.5
20260905204505 50 0 0.0 0.0 0.00 0.04 0.01 99 1002.5
20260905203624 50 0 0.0 0.0 0.00 0.04 0.01 99 1002.1
20260905202705 51 0 0.0 0.0 0.00 0.04 0.01 99 1002.0
20260905201805 51 0 0.0 0.0 0.00 0.04 0.01 98 1001.8
20260905200903 51 0 0.0 0.0 0.00 0.05 0.01 98 1001.8
20260905200024 52 0 0.0 0.0 0.00 0.05 0.01 97 1001.8
20260905195405 51 0 0.0 0.0 0.00 0.06 0.01 96 1001.9
20260905194503 52 307 0.0 4.0 0.00 0.07 0.01 96 1001.7
20260905193603 53 329 2.0 4.0 0.00 0.07 0.01 96 1001.5
20260905192705 53 360 0.0 2.0 0.00 0.07 0.01 97 1001.4
20260905191825 53 0 0.0 0.0 0.00 0.08 0.01 96 1001.4
20260905190903 54 360 0.0 2.0 0.00 0.09 0.01 95 1001.2
20260905190003 55 360 1.0 2.0 0.00 0.11 0.01 95 1001.0
20260905185403 54 360 1.0 2.0 0.00 0.12 0.01 94 1001.4
20260905184503 55 0 0.0 0.0 0.00 0.14 0.01 94 1001.2
20260905183624 54 0 0.0 0.0 0.00 0.17 0.01 93 1001.1
20260905182726 54 0 0.0 0.0 0.00 0.19 0.01 93 1000.4
20260905181803 54 360 0.0 2.0 0.00 0.19 0.01 92 1000.4
20260905180905 55 360 1.0 2.0 0.00 0.19 0.01 92 1000.4
20260905180003 56 360 1.0 2.0 0.00 0.19 0.01 90 1000.3
20260905175405 56 360 0.0 2.0 0.00 0.19 0.01 88 1000.3
20260905174505 56 360 0.0 2.0 0.00 0.19 0.01 88 999.9
20260905173626 56 3 0.0 4.0 0.00 0.19 0.01 89 1000.1
20260905172724 56 22 1.0 2.0 0.01 0.19 0.01 90 999.7
20260905171805 56 26 1.0 2.0 0.01 0.19 0.01 90 999.7
20260905170903 56 29 2.0 4.0 0.01 0.19 0.01 89 999.2
20260905170003 56 60 2.0 6.0 0.01 0.19 0.01 89 999.3
20260905165403 56 67 2.0 6.0 0.01 0.19 0.01 87 999.0
20260905164503 56 40 2.0 6.0 0.01 0.19 0.01 87 998.8
20260905163603 57 15 2.0 8.0 0.01 0.19 0.01 85 998.7
20260905162724 58 337 4.0 13.0 0.00 0.18 0.00 81 998.6
20260905161804 62 301 6.0 13.0 0.00 0.18 0.00 67 998.7
20260905160903 64 280 3.0 7.0 0.00 0.19 0.00 55 998.1
20260905160003 65 282 3.0 8.0 0.00 0.19 0.00 54 998.0
20260905155424 64 276 2.0 8.0 0.00 0.19 0.00 56 998.1
20260905154503 62 276 3.0 7.0 0.00 0.21 0.00 57 997.9
20260905153605 62 282 4.0 8.0 0.00 0.25 0.00 57 998.0
20260905152705 63 281 3.0 8.0 0.00 0.25 0.00 58 997.8
20260905151824 65 322 2.0 2.0 0.00 0.25 0.00 53 997.6
20260905150903 65 334 1.0 2.0 0.00 0.25 0.00 51 997.6
20260905150003 65 2 2.0 2.0 0.00 0.25 0.00 52 997.5
20260905145403 66 360 0.0 4.0 0.00 0.25 0.00 52 997.4
20260905144503 66 342 2.0 4.0 0.00 0.25 0.00 52 997.3
20260905143603 66 313 2.0 4.0 0.00 0.25 0.00 50 997.2
20260905142724 66 257 1.0 2.0 0.00 0.25 0.00 50 997.3
20260905141824 66 270 1.0 4.0 0.00 0.25 0.00 50 997.1
20260905140904 65 267 2.0 4.0 0.00 0.25 0.00 50 997.1
20260905140024 64 267 2.0 6.0 0.00 0.25 0.00 53 997.0
20260905135403 65 238 2.0 7.0 0.00 0.25 0.00 51 996.9
20260905134505 63 247 4.0 7.0 0.00 0.25 0.00 53 996.8
20260905133603 64 254 4.0 9.0 0.00 0.25 0.00 53 996.9
20260905132724 68 256 1.0 6.0 0.00 0.25 0.00 48 996.7
20260905131805 65 239 4.0 9.0 0.00 0.25 0.00 53 996.7
20260905130903 66 241 4.0 7.0 0.00 0.25 0.00 51 996.4
20260905130003 66 212 2.0 6.0 0.00 0.25 0.00 52 996.7
20260905125405 64 243 3.0 6.0 0.00 0.25 0.00 54 996.4
20260905124503 64 249 3.0 6.0 0.00 0.25 0.00 58 996.6
20260905123605 61 246 4.0 6.0 0.00 0.25 0.00 60 996.4
20260905122725 62 251 2.0 4.0 0.00 0.25 0.00 60 996.6
20260905121803 62 290 2.0 6.0 0.00 0.25 0.00 59 996.5
20260905120903 64 340 2.0 4.0 0.00 0.25 0.00 58 996.5